Featured Flight

MET2281 - Kansas City to Oklahoma City

Bombardier Dash-8-Q200
835AG
1 hr 20 mins
272 nm
Scheduled - Daily

Bid/PiRep Status

Bid was submitted on October 21st, 2016 4:52 UTC.
PiRep # 73801: Approved by Dave Nichols on October 27th, 2016 1:43 UTC

Departure

Departing from
Kansas City (MCI)
Departure gate
Scheduled Departure
GMT 1400
Local 0900
METAR KMCI 201753Z 21015KT 10SM BKN034 29/23 A2981 RMK AO2 SLP081 T02890228 10294 20222 51005
TAF KMCI 201802Z 2018/2118 21015KT P6SM BKN035 FM210200 VRB05KT P6SM VCTS BKN060CB TEMPO 2104/2108 3SM -TSRA BKN030CB FM210800 14006KT P6SM VCTS BKN150CB FM211300 17008KT P6SM SCT050

Arrival

Arriving at
Oklahoma City (OKC)
Arrival gate
8
Scheduled Arrival
GMT 1520
Local 1020

Route Map

Planning Resources

WLDCT2 GULLI1
DOSOA J25 TUL GULLI
â– RACER3 DOSOA TUL TRUMP5
KMCI DOSOA TUL DWINE KOKC
DOSOA WP1 TUL KOKC
Route:
OFP Layout:
Units:
Detailed Navlog:
ETOPS Planning:
Plan Stepclimbs:
Runway Analysis:
Include NOTAMS:
FIR NOTAMS:
Flight Maps:

Return Flights

MET2282
Bombardier Dash-8-Q200
1550 GMT
MET2286
Bombardier Dash-8-Q200
2230 GMT
MET3421
Bombardier Dash-8-Q400
1235 GMT
MET3423
Bombardier Dash-8-Q400
1940 GMT

Popularity

Hub Current Bids PiReps this month Total PiReps
KMCI 0 0 2
KLAX 0 0 0
KBOS 0 0 0